Theta_e
290 291 290 288 288 290 290 291 288 291 291 295 299 299 300 301 301 300 299 300 302 303 304 304 303 303 304 305 306 306 305 306 307 307 308 305 300 299 296 298 295 295 291 290
285 289 290 288 290 291 291 292 292 292 291 298 299 300 299 300 300 300 300 301 301 302 303 303 303 302 303 303 303 303 303 303 304 301 298 295 293 292 290 290 290 289 290 289
284 287 287 284 287 289 291 293 293 289 294 297 296 297 298 299 300 299 299 300 301 301 302 303 303 303 302 302 303 301 299 297 295 293 292 291 290 289 288 289 288 288 288 288
282 285 277 289 294 294 291 293 294 294 295 297 298 299 301 301 301 300 300 301 301 301 302 304 305 304 303 303 301 297 296 294 291 291 290 289 288 288 288 288 287 287 288 287
283 282 287 289 290 291 290 290 295 294 295 297 298 297 297 300 301 301 302 300 299 301 301 302 302 303 300 297 296 295 295 293 291 290 288 288 287 287 287 286 286 286 286 287
284 282 278 288 293 295 295 284 296 296 296 296 297 290 294 301 300 298 298 298 298 299 299 300 301 300 295 294 294 294 294 293 292 290 288 288 288 287 287 287 285 285 285 287
285 284 288 291 293 295 284 287 294 296 297 297 294 296 297 296 295 296 295 295 295 297 296 296 295 294 293 293 292 293 291 290 288 288 287 289 288 287 286 285 284 284 285 285
285 283 280 293 291 288 294 294 294 294 295 294 298 295 295 295 294 293 293 293 291 293 292 292 292 292 291 291 292 289 288 287 287 286 287 286 286 286 285 285 285 284 284 284
288 288 292 293 293 295 295 296 294 296 295 295 294 293 294 292 292 291 290 288 288 288 288 288 287 288 288 289 288 286 286 285 285 285 286 286 286 285 284 285 284 284 283 283
288 291 291 292 291 292 292 294 293 294 293 294 293 292 290 289 288 288 286 285 285 286 285 284 285 285 285 286 285 285 285 285 285 285 285 285 286 286 286 284 284 284 284 283
288 287 289 290 292 292 290 291 290 289 290 292 290 289 288 286 286 285 285 284 284 284 284 283 284 284 284 284 285 285 285 284 285 285 285 285 285 286 285 286 287 285 285 285
287 291 293 292 292 291 289 289 289 288 287 287 289 287 286 284 284 284 283 283 283 282 282 282 283 282 282 282 283 284 284 284 285 285 285 284 284 284 287 287 287 288 289 287
292 293 292 291 291 292 290 289 288 287 286 284 284 286 284 282 282 281 281 280 280 280 279 280 280 280 279 281 281 281 283 284 284 282 284 284 283 284 283 283 284 286 287 288
289 289 286 288 286 288 286 284 282 280 280 281 280 280 281 279 279 278 276 277 278 277 275 275 276 275 275 277 279 279 281 282 283 284 284 284 283 283 283 283 281 282 284 285
284 288 288 286 284 282 282 282 280 279 279 277 277 277 278 277 276 275 273 273 276 273 271 272 271 271 271 272 276 279 281 284 284 284 284 283 283 283 282 282 282 282 282 283
279 282 282 281 280 280 281 280 278 277 276 275 274 273 275 275 274 273 271 271 275 270 268 268 268 268 269 270 273 280 281 281 279 283 283 283 283 282 282 281 281 281 282 282
280 278 278 277 276 274 273 273 274 273 272 270 269 270 271 272 271 269 268 269 269 267 266 265 264 266 266 268 270 276 278 280 280 281 282 282 282 282 282 281 281 281 281 283
269 270 271 275 273 271 269 267 267 266 265 265 267 267 266 266 266 265 265 268 267 265 263 262 263 265 265 266 269 273 275 277 279 279 280 280 281 281 281 280 280 280 280 282
264 264 265 265 267 267 265 264 263 262 261 262 264 263 263 262 262 263 264 264 264 267 263 261 265 264 265 265 267 271 273 273 274 275 276 276 276 277 278 278 278 279 279 279
261 262 262 261 260 261 260 260 262 260 259 260 262 262 263 261 259 260 263 261 260 260 260 261 261 264 263 264 264 269 270 270 271 271 272 273 273 273 274 274 274 274 276 276
257 259 259 259 258 257 257 257 258 258 258 257 259 258 258 259 258 258 263 269 260 259 259 261 262 263 263 264 265 267 268 268 268 268 269 270 271 272 272 273 273 272 272 273
256 256 256 256 257 257 255 255 256 256 257 257 256 255 257 261 259 260 257 261 261 259 260 263 263 261 262 263 265 265 265 265 265 266 266 267 268 268 269 269 269 270 270 270
255 255 256 255 254 255 255 255 254 255 255 255 255 255 257 258 259 260 263 259 259 259 259 261 261 262 263 263 264 264 264 263 263 263 263 264 264 265 265 266 266 267 267 267
253 254 254 254 254 255 257 256 254 255 254 254 255 253 254 257 259 260 260 259 258 257 258 259 261 264 261 261 262 262 262 262 262 262 262 261 262 263 263 263 263 264 264 265
252 252 252 253 255 257 254 255 254 257 256 257 257 257 255 257 255 257 256 257 258 257 258 259 262 261 259 260 261 260 261 261 261 260 260 261 261 261 261 262 262 262 262 262
252 253 253 252 252 253 254 254 254 255 255 256 256 257 257 257 257 256 257 257 257 257 258 259 259 258 259 259 259 259 260 260 260 260 260 260 260 260 260 260 260 261 261 261
252 251 253 254 254 254 253 253 252 254 255 254 254 256 256 256 257 256 256 257 258 258 258 258 258 258 258 258 258 259 259 259 259 259 258 259 259 259 259 259 259 259 260 260
Wind_Speed
7 10 18 17 19 21 22 29 16 21 23 18 12 10 10 9 11 8 9 8 8 7 4 3 4 5 6 6 7 7 8 7 7 5 5 5 7 8 8 9 9 10 10 7
2 4 12 11 16 23 29 29 23 22 24 10 12 11 11 12 12 11 10 9 5 4 3 3 4 6 6 8 6 6 8 8 6 5 4 4 5 6 6 6 8 9 11 11
5 6 6 1 24 23 24 25 25 23 32 8 10 8 8 11 12 12 8 8 5 4 3 3 5 6 8 7 6 7 7 5 5 6 6 5 5 6 7 9 9 10 10 12
4 4 6 19 13 23 25 23 27 28 25 9 8 9 9 12 13 9 11 9 4 3 4 1 3 4 5 5 6 6 6 5 5 5 5 7 6 6 7 8 11 11 11 11
7 11 5 14 10 13 19 22 22 24 25 19 13 3 15 12 12 13 6 2 2 4 6 6 2 3 4 4 3 5 7 5 6 6 5 6 7 8 6 6 6 7 7 8
6 7 13 8 16 9 8 22 15 21 19 15 9 11 16 13 2 5 5 6 5 7 8 6 5 2 5 5 5 6 5 5 4 6 7 8 7 7 5 5 3 3 3 4
6 6 7 4 8 15 12 5 5 14 17 14 14 18 2 7 8 6 5 6 5 4 5 8 7 2 2 2 4 3 2 4 4 4 4 5 5 3 6 6 6 6 7 5
6 9 21 7 8 19 8 3 3 1 1 4 4 9 7 7 6 6 6 5 6 5 5 5 7 5 4 4 3 1 3 4 4 4 3 3 6 5 6 6 7 7 7 5
14 12 2 8 6 6 3 3 4 3 3 3 7 7 8 7 5 6 6 5 6 6 6 7 5 5 4 4 4 2 3 2 2 3 3 5 7 7 6 7 7 7 7 7
5 8 5 8 2 0 2 3 3 1 3 4 8 8 6 6 5 5 4 5 5 7 6 6 5 5 4 4 3 2 2 3 3 3 2 2 3 5 6 7 8 8 9 9
4 3 3 0 5 7 6 5 7 5 3 8 11 8 7 6 5 5 5 4 4 5 4 5 6 6 7 6 4 3 2 3 2 2 3 3 4 5 6 6 8 8 9 9
11 13 9 7 11 10 10 8 7 7 5 6 6 8 7 7 5 5 6 4 5 5 4 5 5 6 6 5 4 4 2 2 1 1 2 2 3 4 6 6 9 11 11 10
2 6 3 11 11 10 10 9 7 8 8 10 4 6 5 5 4 5 6 5 6 6 5 6 7 8 8 7 5 3 2 2 1 0 1 2 2 3 5 3 6 11 11 11
9 8 7 8 7 10 12 12 11 11 9 7 5 4 5 6 4 6 6 4 4 6 7 7 6 8 9 8 6 3 3 2 1 1 2 2 3 4 4 5 5 5 11 12
10 4 7 13 14 13 11 11 11 9 7 8 7 6 6 7 6 6 5 4 4 8 8 6 7 9 11 10 7 6 5 4 2 3 2 2 2 3 4 5 6 6 4 9
10 8 10 12 13 10 10 9 10 8 6 6 6 6 5 5 6 6 6 6 4 6 6 6 6 8 9 8 8 5 5 7 4 4 3 3 3 4 5 5 6 6 7 7
2 6 7 10 8 8 10 8 8 8 6 7 5 4 3 4 7 7 7 5 7 7 6 7 7 8 8 8 8 6 5 5 6 4 4 4 4 5 5 5 6 6 7 6
10 10 11 8 8 9 8 7 7 7 5 4 4 5 7 8 5 4 5 4 3 4 8 7 8 9 6 7 7 5 5 5 5 5 5 4 4 4 5 6 6 7 7 7
12 12 12 12 10 8 7 6 6 6 6 5 5 6 5 5 3 3 4 4 5 4 8 8 11 7 6 7 8 5 4 4 4 5 5 6 6 6 6 6 6 7 6 5
12 11 10 10 11 10 7 6 5 6 6 4 3 4 4 4 4 4 2 5 3 2 7 8 8 7 7 6 9 5 5 5 5 4 5 5 5 7 7 7 6 7 7 5
10 10 9 8 7 7 6 5 5 5 5 6 5 4 3 4 3 4 3 3 2 3 6 6 4 5 5 7 7 5 5 5 5 5 5 5 6 6 7 7 6 6 6 6
7 6 6 6 4 4 5 5 4 3 4 4 3 3 4 2 3 2 1 2 3 5 5 5 5 8 8 9 5 5 5 5 5 5 5 6 6 6 6 6 6 6 5 5
5 5 5 5 4 4 3 3 4 4 4 3 4 4 3 4 4 4 2 3 5 6 5 4 7 10 10 6 5 5 5 6 5 5 5 5 6 6 7 7 7 7 7 6
5 5 6 6 4 3 2 2 4 3 2 4 4 3 3 4 4 1 2 5 6 6 6 6 7 11 9 5 5 5 5 5 5 5 5 6 5 6 6 6 7 6 7 7
4 4 4 5 5 2 3 4 5 2 4 4 3 2 2 2 3 4 5 5 7 7 6 7 8 8 5 4 5 5 5 5 5 5 5 6 5 6 6 6 6 6 6 6
4 4 4 4 4 4 3 3 3 3 4 5 4 3 3 2 4 5 5 6 6 7 6 5 4 4 5 5 5 6 6 6 6 5 6 6 6 6 6 6 6 6 5 6
4 3 3 4 2 2 2 4 4 4 3 4 5 5 4 5 5 5 6 6 5 5 5 4 4 5 5 5 6 5 5 5 5 5 6 6 6 6 6 6 6 5 5 5
Wind_Direction
190 174 176 194 199 193 207 227 212 234 240 236 233 251 276 299 297 273 273 265 256 257 258 261 242 228 233 231 203 192 208 214 218 206 200 171 161 165 159 170 171 167 156 145
90 141 182 194 193 201 212 226 236 253 267 245 260 266 261 274 282 285 282 281 269 273 284 265 241 240 225 225 208 210 217 210 201 183 185 173 149 145 146 147 152 156 166 165
173 145 111 350 212 204 217 223 223 237 243 228 243 255 252 270 278 285 293 282 287 307 289 207 225 222 228 226 211 210 217 199 180 166 168 166 159 157 164 168 161 173 174 172
115 115 198 242 204 209 214 221 223 242 255 249 258 267 257 253 263 263 272 279 307 318 297 267 222 216 227 203 202 204 221 199 174 170 178 163 165 189 185 180 178 180 183 187
155 199 313 264 193 211 206 239 225 234 248 249 252 178 252 231 241 240 256 61 324 310 307 306 284 180 168 156 197 220 221 199 180 185 175 176 185 184 182 179 182 185 175 172
151 195 215 235 168 166 151 262 219 224 239 235 207 226 250 242 258 93 86 81 35 348 333 330 8 56 153 171 193 243 249 232 193 187 177 185 190 181 168 166 170 123 135 146
179 224 265 160 152 144 189 260 235 216 231 232 222 228 55 103 84 84 73 59 34 43 22 350 336 336 216 177 213 238 184 164 160 183 184 175 159 145 157 155 143 150 156 146
199 223 253 151 151 188 207 72 75 109 171 242 214 111 119 119 105 99 93 68 36 45 49 35 4 345 358 343 3 93 138 150 160 152 150 154 153 134 148 154 164 168 167 162
188 209 168 179 193 218 86 117 176 202 189 177 137 147 153 124 97 73 71 61 37 47 33 24 24 14 16 359 337 99 122 121 111 134 159 161 165 163 161 170 180 184 183 186
121 204 184 170 154 28 135 164 135 108 119 161 146 124 114 109 107 97 58 57 40 37 24 16 5 31 19 350 8 71 87 111 129 148 153 176 188 181 185 188 193 192 192 195
268 91 58 254 201 182 155 129 124 93 93 124 119 114 139 118 93 82 70 51 39 53 41 23 8 20 14 5 4 33 61 79 101 143 179 189 221 211 216 220 214 206 208 203
223 165 199 193 172 146 156 158 142 129 109 54 92 123 122 102 96 97 86 55 45 45 38 15 25 37 19 8 9 10 21 57 91 169 150 217 227 244 240 268 242 244 230 213
294 101 128 132 133 149 145 133 98 88 98 113 67 110 104 101 84 86 76 65 58 54 30 18 14 28 8 355 357 15 1 7 1 271 159 221 219 246 260 230 261 263 251 230
120 117 104 163 145 117 112 98 84 77 64 68 78 38 74 88 74 66 49 34 60 53 40 21 22 19 354 345 342 354 347 340 301 263 245 245 223 226 235 250 251 244 243 240
3 1 93 107 102 98 101 108 95 89 92 75 56 60 56 74 62 51 24 358 87 64 41 27 26 10 348 340 346 352 352 339 331 304 297 287 285 268 255 245 244 243 221 228
326 76 88 95 100 93 101 87 101 100 88 78 71 58 61 85 90 71 41 16 61 49 22 29 31 351 341 346 343 353 357 352 336 318 313 283 267 262 258 256 255 248 247 236
150 75 83 86 78 76 71 67 79 90 82 60 36 24 55 85 78 47 36 24 68 63 44 24 355 347 344 353 345 355 349 346 338 308 292 286 280 273 269 265 261 256 256 246
36 45 28 59 100 101 80 64 63 64 59 29 43 48 51 56 56 24 12 4 76 78 38 6 346 345 344 350 341 343 348 341 333 325 318 303 288 282 276 270 271 269 267 259
36 45 38 38 36 67 70 64 56 61 48 27 59 67 68 53 33 4 347 29 27 16 6 343 343 338 352 347 354 329 343 337 330 327 323 320 310 304 297 293 292 288 283 282
39 41 48 52 42 43 55 28 34 52 34 27 51 59 59 39 6 1 9 82 55 352 314 325 333 347 343 347 341 325 336 329 329 320 319 317 302 301 300 296 286 285 285 267
28 25 30 35 54 50 45 24 17 32 15 21 32 36 348 316 336 309 227 188 98 2 322 307 341 354 334 340 324 335 334 332 327 322 321 316 313 309 306 303 298 297 293 289
11 18 21 14 21 49 28 22 30 22 18 16 8 342 317 316 321 298 171 38 1 358 337 336 341 343 323 330 324 328 328 325 322 319 312 311 310 306 301 300 298 297 291 287
354 351 351 7 4 352 332 15 13 5 347 353 340 338 334 313 312 325 331 59 351 339 324 313 331 324 335 321 326 321 322 320 315 314 309 307 306 306 302 303 305 304 299 294
349 350 339 326 306 285 272 7 334 308 277 278 256 250 299 329 321 134 304 321 320 330 308 299 315 319 337 310 317 315 310 310 307 309 308 302 297 298 297 300 300 301 302 301
326 311 289 301 287 312 318 339 309 304 322 315 306 281 227 246 253 319 315 308 302 311 307 303 314 320 306 308 307 306 304 305 306 307 297 301 300 295 295 294 292 296 299 294
305 300 287 282 284 307 323 314 307 319 318 322 322 318 316 292 288 283 283 285 291 293 289 300 304 310 298 296 302 300 300 301 304 306 305 296 295 296 292 297 297 297 299 299
259 262 284 287 236 254 271 282 296 305 317 296 293 296 298 301 286 277 280 282 279 279 276 274 277 278 286 290 290 287 286 289 290 295 296 291 290 289 292 294 296 299 300 299